Tracking 20942 objects as of 9-Jul-2020
HD Live streaming from Space Station
objects crossing your sky now

FENGYUN 1C DEB

Track FENGYUN 1C DEB now!
10-day predictions


NORAD ID: 32241
Int'l Code: 1999-025CWP
Perigee: 726.8 km
Apogee: 988.0 km
Inclination: 99.0 °
Period: 101.9 minutes
Semi major axis: 7228 km
RCS: 0.0127 m2 (small)
Launch date: May 10, 1999
Source: People's Republic of China (PRC)
Launch site: Taiyaun Space Center, China (TSC)

Note: This is SATELLITE DEBRIS
aabbcc
Your satellite tracking list
Your tracking list is empty




NASA's NSSDC Master Catalog

Two Line Element Set (TLE):
1 32241U 99025CWP 20189.60798309 +.00000653 +00000-0 +32218-3 0  9992
2 32241 099.0146 148.1627 0180662 102.0300 260.1182 14.12669243657030
Source of the keplerian elements: AFSPC